| time (UTC) | temp F | wind direction | speed knots | gust knots | rain 1hr in | rain 24hr in | rain mn in | humidity % | barometer mb |
| 20260510115744 | 53 | 177 | 0.0 | 0.0 | 0.00 | 0.00 | 0.00 | 91 | 1009.4 |
| 20260510115247 | 53 | 177 | 0.0 | 0.0 | 0.00 | 0.00 | 0.00 | 91 | 1009.4 |
| 20260510114741 | 53 | 177 | 0.0 | 0.0 | 0.00 | 0.00 | 0.00 | 91 | 1009.4 |
| 20260510114241 | 52 | 177 | 0.0 | 0.0 | 0.00 | 0.00 | 0.00 | 91 | 1009.4 |
| 20260510113744 | 52 | 178 | 0.0 | 0.0 | 0.00 | 0.00 | 0.00 | 90 | 1009.4 |
| 20260510113241 | 52 | 177 | 0.0 | 0.0 | 0.00 | 0.00 | 0.00 | 90 | 1009.4 |
| 20260510112741 | 51 | 178 | 0.0 | 0.0 | 0.00 | 0.00 | 0.00 | 90 | 1009.1 |
| 20260510112244 | 51 | 177 | 0.0 | 0.0 | 0.00 | 0.00 | 0.00 | 90 | 1009.1 |
| 20260510111741 | 51 | 178 | 0.0 | 0.0 | 0.00 | 0.00 | 0.00 | 89 | 1009.1 |
| 20260510111244 | 50 | 178 | 0.0 | 0.0 | 0.00 | 0.00 | 0.00 | 89 | 1008.9 |
| 20260510110741 | 50 | 177 | 0.0 | 0.0 | 0.00 | 0.00 | 0.00 | 89 | 1008.9 |
| 20260510110247 | 50 | 177 | 0.0 | 0.0 | 0.00 | 0.00 | 0.00 | 88 | 1008.9 |
| 20260510105744 | 50 | 177 | 0.0 | 0.9 | 0.00 | 0.00 | 0.00 | 88 | 1008.6 |
| 20260510105241 | 50 | 177 | 0.0 | 0.0 | 0.00 | 0.00 | 0.00 | 88 | 1008.6 |
| 20260510104747 | 50 | 177 | 0.0 | 0.0 | 0.00 | 0.00 | 0.00 | 88 | 1008.6 |
| 20260510104251 | 50 | 178 | 0.0 | 0.0 | 0.00 | 0.00 | 0.00 | 88 | 1008.4 |
| 20260510103745 | 50 | 177 | 0.0 | 0.0 | 0.00 | 0.00 | 0.00 | 88 | 1008.4 |
| 20260510103241 | 50 | 177 | 0.0 | 0.0 | 0.00 | 0.00 | 0.00 | 88 | 1008.4 |
| 20260510102750 | 50 | 177 | 0.0 | 0.0 | 0.00 | 0.00 | 0.00 | 87 | 1008.2 |
| 20260510102244 | 50 | 177 | 0.0 | 0.0 | 0.00 | 0.00 | 0.00 | 87 | 1008.2 |
| 20260510101744 | 50 | 177 | 0.0 | 0.0 | 0.00 | 0.00 | 0.00 | 87 | 1008.2 |
| 20260510101241 | 50 | 177 | 0.0 | 0.0 | 0.00 | 0.00 | 0.00 | 87 | 1008.0 |
| 20260510100747 | 50 | 177 | 0.0 | 0.0 | 0.00 | 0.00 | 0.00 | 87 | 1008.0 |
| 20260510100247 | 50 | 177 | 0.0 | 0.0 | 0.00 | 0.00 | 0.00 | 87 | 1008.0 |
| 20260510095747 | 50 | 177 | 0.0 | 0.0 | 0.00 | 0.00 | 0.00 | 87 | 1007.9 |
| 20260510095247 | 50 | 177 | 0.0 | 0.0 | 0.00 | 0.00 | 0.00 | 87 | 1007.9 |
| 20260510094743 | 50 | 177 | 0.0 | 0.0 | 0.00 | 0.00 | 0.00 | 87 | 1007.9 |
| 20260510094251 | 50 | 177 | 0.0 | 0.0 | 0.00 | 0.00 | 0.00 | 87 | 1008.0 |
| 20260510093751 | 50 | 177 | 0.0 | 0.0 | 0.00 | 0.00 | 0.00 | 87 | 1008.0 |
| 20260510093241 | 50 | 177 | 0.0 | 0.0 | 0.00 | 0.00 | 0.00 | 87 | 1008.0 |
| 20260510092741 | 50 | 177 | 0.0 | 1.7 | 0.00 | 0.00 | 0.00 | 87 | 1008.0 |
| 20260510092241 | 50 | 177 | 0.0 | 0.0 | 0.00 | 0.00 | 0.00 | 87 | 1008.0 |
| 20260510091750 | 50 | 177 | 0.0 | 0.0 | 0.00 | 0.00 | 0.00 | 87 | 1008.0 |
| 20260510091244 | 50 | 177 | 0.0 | 0.0 | 0.00 | 0.00 | 0.00 | 87 | 1007.9 |
| 20260510090747 | 50 | 177 | 0.0 | 0.0 | 0.00 | 0.00 | 0.00 | 86 | 1007.9 |
| 20260510090244 | 51 | 177 | 0.0 | 0.0 | 0.00 | 0.00 | 0.00 | 86 | 1007.9 |
| 20260510085747 | 51 | 177 | 0.0 | 0.0 | 0.00 | 0.00 | 0.00 | 86 | 1007.9 |
| 20260510085245 | 51 | 177 | 0.0 | 0.0 | 0.00 | 0.00 | 0.00 | 86 | 1007.9 |
| 20260510084741 | 51 | 177 | 0.0 | 0.0 | 0.00 | 0.00 | 0.00 | 86 | 1007.9 |
| 20260510084241 | 51 | 177 | 0.0 | 0.0 | 0.00 | 0.00 | 0.00 | 86 | 1007.9 |
| 20260510083744 | 51 | 177 | 0.0 | 1.7 | 0.00 | 0.00 | 0.00 | 86 | 1007.9 |
| 20260510083241 | 51 | 177 | 0.0 | 0.9 | 0.00 | 0.00 | 0.00 | 86 | 1007.9 |
| 20260510082742 | 51 | 177 | 0.0 | 0.0 | 0.00 | 0.00 | 0.00 | 86 | 1007.8 |
| 20260510082247 | 51 | 177 | 0.0 | 0.0 | 0.00 | 0.00 | 0.00 | 86 | 1007.8 |
| 20260510081744 | 51 | 177 | 0.0 | 0.0 | 0.00 | 0.00 | 0.00 | 86 | 1007.8 |
| 20260510081244 | 51 | 177 | 0.0 | 0.0 | 0.00 | 0.00 | 0.00 | 86 | 1007.4 |
| 20260510080741 | 51 | 177 | 0.0 | 0.9 | 0.00 | 0.00 | 0.00 | 85 | 1007.4 |
| 20260510080247 | 51 | 177 | 0.0 | 0.0 | 0.00 | 0.00 | 0.00 | 85 | 1007.4 |
| 20260510075744 | 51 | 177 | 0.0 | 0.9 | 0.00 | 0.00 | 0.00 | 85 | 1007.4 |
| 20260510075245 | 52 | 177 | 0.0 | 0.9 | 0.00 | 0.00 | 0.00 | 85 | 1007.4 |
| 20260510074744 | 52 | 177 | 0.0 | 0.0 | 0.00 | 0.00 | 0.00 | 85 | 1007.4 |
| 20260510074248 | 52 | 177 | 0.0 | 0.0 | 0.00 | 0.00 | 0.00 | 85 | 1007.1 |
| 20260510073744 | 52 | 177 | 0.0 | 0.0 | 0.00 | 0.00 | 0.00 | 85 | 1007.1 |
| 20260510073242 | 52 | 177 | 0.0 | 0.0 | 0.00 | 0.00 | 0.00 | 85 | 1007.1 |
| 20260510072741 | 52 | 177 | 0.0 | 0.0 | 0.00 | 0.00 | 0.00 | 85 | 1007.0 |
| 20260510072241 | 52 | 177 | 0.0 | 0.0 | 0.00 | 0.00 | 0.00 | 85 | 1007.0 |
| 20260510071741 | 52 | 177 | 0.0 | 0.0 | 0.00 | 0.00 | 0.00 | 85 | 1007.0 |
| 20260510071246 | 52 | 177 | 0.0 | 0.0 | 0.00 | 0.00 | 0.00 | 85 | 1007.0 |
| 20260510070741 | 53 | 177 | 0.0 | 0.0 | 0.00 | 0.00 | 0.00 | 84 | 1007.0 |
| 20260510070244 | 53 | 177 | 0.0 | 0.0 | 0.00 | 0.00 | 0.00 | 85 | 1007.0 |
| 20260510065741 | 53 | 177 | 0.0 | 0.0 | 0.00 | 0.00 | 0.00 | 84 | 1006.9 |
| 20260510065242 | 53 | 177 | 0.0 | 0.0 | 0.00 | 0.00 | 0.00 | 84 | 1006.9 |
| 20260510064747 | 53 | 177 | 0.0 | 0.0 | 0.00 | 0.00 | 0.00 | 84 | 1006.9 |
| 20260510064241 | 53 | 177 | 0.0 | 0.0 | 0.00 | 0.00 | 0.00 | 84 | 1006.8 |
| 20260510063741 | 53 | 177 | 0.0 | 0.0 | 0.00 | 0.00 | 0.00 | 84 | 1006.8 |
| 20260510063250 | 54 | 177 | 0.0 | 0.0 | 0.00 | 0.00 | 0.00 | 84 | 1006.8 |
| 20260510062744 | 54 | 177 | 0.0 | 0.0 | 0.00 | 0.00 | 0.00 | 84 | 1006.9 |
| 20260510062250 | 54 | 177 | 0.0 | 0.0 | 0.00 | 0.00 | 0.00 | 84 | 1006.9 |
| 20260510061744 | 54 | 177 | 0.0 | 0.0 | 0.00 | 0.00 | 0.00 | 84 | 1006.9 |
| 20260510061241 | 54 | 177 | 0.0 | 0.0 | 0.00 | 0.00 | 0.00 | 84 | 1006.8 |
| 20260510060741 | 54 | 177 | 0.0 | 0.0 | 0.00 | 0.00 | 0.00 | 84 | 1006.8 |
| 20260510060244 | 54 | 177 | 0.0 | 0.0 | 0.00 | 0.00 | 0.00 | 84 | 1006.8 |
| 20260510055742 | 55 | 177 | 0.0 | 0.0 | 0.00 | 0.00 | 0.00 | 83 | 1007.0 |
| 20260510055244 | 55 | 177 | 0.0 | 0.0 | 0.00 | 0.00 | 0.00 | 83 | 1007.0 |
| 20260510054744 | 55 | 177 | 0.0 | 0.0 | 0.00 | 0.00 | 0.00 | 83 | 1007.0 |
| 20260510054241 | 55 | 177 | 0.0 | 0.0 | 0.00 | 0.00 | 0.00 | 83 | 1007.1 |
| 20260510053741 | 55 | 177 | 0.0 | 0.0 | 0.00 | 0.00 | 0.00 | 83 | 1007.1 |
| 20260510053242 | 55 | 177 | 0.0 | 0.0 | 0.00 | 0.00 | 0.00 | 83 | 1007.1 |
| 20260510052744 | 55 | 177 | 0.0 | 0.0 | 0.00 | 0.00 | 0.00 | 83 | 1007.1 |
| 20260510052244 | 55 | 177 | 0.0 | 0.0 | 0.00 | 0.00 | 0.00 | 83 | 1007.1 |
| 20260510051743 | 56 | 177 | 0.0 | 0.0 | 0.00 | 0.00 | 0.00 | 83 | 1007.1 |
| 20260510051247 | 56 | 177 | 0.0 | 0.0 | 0.00 | 0.00 | 0.00 | 83 | 1007.1 |
| 20260510050741 | 56 | 177 | 0.0 | 0.0 | 0.00 | 0.00 | 0.00 | 82 | 1007.1 |
| 20260510050241 | 56 | 177 | 0.0 | 0.0 | 0.00 | 0.00 | 0.00 | 82 | 1007.1 |
| 20260510045741 | 56 | 177 | 0.0 | 0.0 | 0.00 | 0.00 | 0.00 | 82 | 1007.2 |
| 20260510045245 | 56 | 177 | 0.0 | 0.0 | 0.00 | 0.00 | 0.00 | 82 | 1007.2 |
| 20260510044747 | 57 | 177 | 0.0 | 0.0 | 0.00 | 0.00 | 0.00 | 82 | 1007.2 |
| 20260510044241 | 57 | 177 | 0.0 | 0.0 | 0.00 | 0.00 | 0.00 | 82 | 1007.2 |
| 20260510043741 | 57 | 177 | 0.0 | 0.0 | 0.00 | 0.00 | 0.00 | 82 | 1007.2 |
| 20260510043241 | 57 | 177 | 0.0 | 0.0 | 0.00 | 0.00 | 0.00 | 81 | 1007.2 |
| 20260510042741 | 57 | 177 | 0.0 | 0.0 | 0.00 | 0.00 | 0.00 | 81 | 1007.1 |
| 20260510042247 | 57 | 177 | 0.0 | 0.0 | 0.00 | 0.00 | 0.00 | 81 | 1007.1 |
| 20260510041743 | 57 | 177 | 0.0 | 0.0 | 0.00 | 0.00 | 0.00 | 81 | 1007.2 |
| 20260510041242 | 58 | 177 | 0.0 | 0.0 | 0.00 | 0.00 | 0.00 | 81 | 1007.1 |
| 20260510040741 | 58 | 177 | 0.0 | 0.0 | 0.00 | 0.00 | 0.00 | 81 | 1007.1 |
| 20260510040241 | 58 | 177 | 0.0 | 0.0 | 0.00 | 0.00 | 0.00 | 81 | 1007.1 |
| 20260510035742 | 58 | 177 | 0.0 | 0.0 | 0.00 | 0.00 | 0.00 | 81 | 1007.0 |
| 20260510035241 | 58 | 177 | 0.0 | 0.0 | 0.00 | 0.00 | 0.00 | 80 | 1007.0 |
| 20260510034747 | 58 | 177 | 0.0 | 0.0 | 0.00 | 0.00 | 0.00 | 80 | 1007.0 |
| 20260510034253 | 58 | 177 | 0.0 | 0.0 | 0.00 | 0.00 | 0.00 | 80 | 1007.1 |
| 20260510033741 | 59 | 177 | 0.0 | 0.0 | 0.00 | 0.00 | 0.00 | 80 | 1007.1 |
| 20260510033242 | 59 | 177 | 0.0 | 0.0 | 0.00 | 0.00 | 0.00 | 79 | 1007.1 |
| 20260510032745 | 59 | 177 | 0.0 | 0.0 | 0.00 | 0.00 | 0.00 | 79 | 1007.0 |
| 20260510032241 | 59 | 177 | 0.0 | 0.0 | 0.00 | 0.00 | 0.00 | 78 | 1007.0 |
| 20260510031744 | 59 | 177 | 0.0 | 0.0 | 0.00 | 0.00 | 0.00 | 78 | 1007.0 |
| 20260510031242 | 59 | 177 | 0.0 | 0.0 | 0.00 | 0.00 | 0.00 | 77 | 1007.0 |
| 20260510030744 | 60 | 177 | 0.0 | 0.0 | 0.00 | 0.00 | 0.00 | 77 | 1007.0 |
| 20260510030241 | 60 | 177 | 0.0 | 0.0 | 0.00 | 0.00 | 0.00 | 77 | 1007.0 |
| 20260510025741 | 60 | 177 | 0.0 | 0.0 | 0.00 | 0.00 | 0.00 | 76 | 1007.0 |
| 20260510025241 | 60 | 177 | 0.0 | 0.0 | 0.00 | 0.00 | 0.00 | 76 | 1007.0 |
| 20260510024741 | 60 | 177 | 0.0 | 0.0 | 0.00 | 0.00 | 0.00 | 76 | 1007.0 |
| 20260510024245 | 60 | 177 | 0.0 | 0.0 | 0.00 | 0.00 | 0.00 | 75 | 1006.9 |
| 20260510023744 | 60 | 177 | 0.0 | 0.0 | 0.00 | 0.00 | 0.00 | 75 | 1006.9 |
| 20260510023241 | 61 | 177 | 0.0 | 0.0 | 0.00 | 0.00 | 0.00 | 75 | 1006.9 |
| 20260510022741 | 61 | 177 | 0.0 | 0.0 | 0.00 | 0.00 | 0.00 | 74 | 1006.9 |
| 20260510022245 | 61 | 177 | 0.0 | 0.0 | 0.00 | 0.00 | 0.00 | 74 | 1006.9 |
| 20260510021741 | 61 | 177 | 0.0 | 0.0 | 0.00 | 0.00 | 0.00 | 74 | 1006.9 |
| 20260510021247 | 61 | 177 | 0.0 | 0.0 | 0.00 | 0.00 | 0.00 | 73 | 1006.8 |
| 20260510020741 | 62 | 177 | 0.0 | 0.9 | 0.00 | 0.00 | 0.00 | 73 | 1006.8 |
| 20260510020244 | 62 | 177 | 0.0 | 0.0 | 0.00 | 0.00 | 0.00 | 73 | 1006.8 |
| 20260510015744 | 62 | 177 | 0.0 | 0.9 | 0.00 | 0.00 | 0.00 | 73 | 1006.7 |
| 20260510015244 | 62 | 177 | 0.0 | 0.9 | 0.00 | 0.00 | 0.00 | 72 | 1006.7 |
| 20260510014741 | 62 | 177 | 0.0 | 0.0 | 0.00 | 0.00 | 0.00 | 71 | 1006.7 |
| 20260510014244 | 62 | 177 | 0.0 | 0.0 | 0.00 | 0.00 | 0.00 | 71 | 1006.5 |
| 20260510013748 | 63 | 177 | 0.0 | 0.0 | 0.00 | 0.00 | 0.00 | 71 | 1006.5 |
| 20260510013247 | 63 | 177 | 0.0 | 0.0 | 0.00 | 0.00 | 0.00 | 71 | 1006.5 |
| 20260510012744 | 63 | 177 | 0.0 | 0.0 | 0.00 | 0.00 | 0.00 | 70 | 1006.3 |
| 20260510012244 | 63 | 177 | 0.0 | 0.0 | 0.00 | 0.00 | 0.00 | 70 | 1006.3 |
| 20260510011742 | 64 | 177 | 0.0 | 0.0 | 0.00 | 0.00 | 0.00 | 70 | 1006.3 |
| 20260510011241 | 64 | 177 | 0.0 | 0.0 | 0.00 | 0.00 | 0.00 | 69 | 1006.1 |
| 20260510010745 | 64 | 177 | 0.0 | 0.0 | 0.00 | 0.00 | 0.00 | 69 | 1006.1 |
| 20260510010241 | 65 | 177 | 0.0 | 0.0 | 0.00 | 0.00 | 0.00 | 69 | 1006.1 |
| 20260510005747 | 65 | 177 | 0.0 | 0.0 | 0.00 | 0.00 | 0.00 | 68 | 1005.9 |
| 20260510005241 | 65 | 177 | 0.0 | 0.0 | 0.00 | 0.00 | 0.00 | 68 | 1005.9 |
| 20260510004741 | 65 | 177 | 0.0 | 0.0 | 0.00 | 0.00 | 0.00 | 67 | 1005.9 |
| 20260510004242 | 66 | 177 | 0.0 | 0.0 | 0.00 | 0.00 | 0.00 | 66 | 1005.8 |
| 20260510003750 | 66 | 177 | 0.0 | 0.0 | 0.00 | 0.00 | 0.00 | 66 | 1005.8 |
| 20260510003247 | 66 | 177 | 0.0 | 0.0 | 0.00 | 0.00 | 0.00 | 66 | 1005.8 |
| 20260510002741 | 66 | 177 | 0.0 | 0.0 | 0.00 | 0.00 | 0.00 | 66 | 1005.8 |
| 20260510002241 | 67 | 177 | 0.0 | 0.0 | 0.00 | 0.00 | 0.00 | 65 | 1005.8 |
| 20260510001750 | 67 | 177 | 0.0 | 0.0 | 0.00 | 0.00 | 0.00 | 64 | 1005.8 |
| 20260510001247 | 67 | 177 | 0.0 | 0.9 | 0.00 | 0.00 | 0.00 | 64 | 1005.5 |
| 20260510000748 | 67 | 177 | 0.0 | 0.0 | 0.00 | 0.00 | 0.00 | 64 | 1005.5 |
| 20260510000244 | 67 | 177 | 0.0 | 0.0 | 0.00 | 0.00 | 0.00 | 63 | 1005.5 |
| 20260509235742 | 68 | 177 | 0.0 | 0.9 | 0.00 | 0.00 | 0.00 | 63 | 1005.5 |
| 20260509235241 | 68 | 177 | 0.0 | 1.7 | 0.00 | 0.00 | 0.00 | 62 | 1005.5 |
| 20260509234741 | 68 | 177 | 0.0 | 0.0 | 0.00 | 0.00 | 0.00 | 62 | 1005.5 |
| 20260509234242 | 68 | 177 | 0.0 | 0.0 | 0.00 | 0.00 | 0.00 | 62 | 1005.4 |
| 20260509233747 | 68 | 177 | 0.0 | 0.0 | 0.00 | 0.00 | 0.00 | 62 | 1005.4 |
| 20260509233241 | 69 | 177 | 0.0 | 0.0 | 0.00 | 0.00 | 0.00 | 62 | 1005.4 |
| 20260509232747 | 69 | 177 | 0.0 | 0.0 | 0.00 | 0.00 | 0.00 | 62 | 1005.4 |
| 20260509232247 | 69 | 177 | 0.0 | 0.0 | 0.00 | 0.00 | 0.00 | 61 | 1005.4 |
| 20260509231741 | 69 | 177 | 0.0 | 0.0 | 0.00 | 0.00 | 0.00 | 61 | 1005.4 |
| 20260509231244 | 69 | 177 | 0.0 | 0.9 | 0.00 | 0.00 | 0.00 | 60 | 1005.2 |
| 20260509230744 | 69 | 177 | 0.0 | 0.0 | 0.00 | 0.00 | 0.00 | 60 | 1005.2 |
| 20260509230241 | 69 | 177 | 0.0 | 0.0 | 0.00 | 0.00 | 0.00 | 59 | 1005.2 |
| 20260509225741 | 70 | 177 | 0.0 | 0.9 | 0.00 | 0.00 | 0.00 | 60 | 1005.2 |
| 20260509225241 | 70 | 177 | 0.0 | 1.7 | 0.00 | 0.00 | 0.00 | 60 | 1005.2 |
| 20260509224741 | 70 | 177 | 0.0 | 3.5 | 0.00 | 0.00 | 0.00 | 59 | 1005.2 |
| 20260509224241 | 70 | 177 | 0.0 | 4.3 | 0.00 | 0.00 | 0.00 | 59 | 1005.3 |
| 20260509223744 | 70 | 177 | 0.0 | 0.9 | 0.00 | 0.00 | 0.00 | 59 | 1005.3 |
| 20260509223245 | 70 | 177 | 0.0 | 0.9 | 0.00 | 0.00 | 0.00 | 59 | 1005.3 |
| 20260509222741 | 70 | 177 | 0.0 | 0.9 | 0.00 | 0.00 | 0.00 | 60 | 1005.3 |
| 20260509222241 | 70 | 177 | 0.9 | 6.1 | 0.00 | 0.00 | 0.00 | 59 | 1005.3 |
| 20260509221741 | 70 | 177 | 0.0 | 0.0 | 0.00 | 0.00 | 0.00 | 59 | 1005.3 |
| 20260509221244 | 70 | 177 | 0.0 | 1.7 | 0.00 | 0.00 | 0.00 | 59 | 1005.3 |
| 20260509220742 | 71 | 177 | 0.0 | 0.0 | 0.00 | 0.00 | 0.00 | 59 | 1005.3 |
| 20260509220243 | 71 | 177 | 0.0 | 1.7 | 0.00 | 0.00 | 0.00 | 58 | 1005.3 |
| 20260509215742 | 71 | 177 | 0.0 | 0.0 | 0.00 | 0.00 | 0.00 | 57 | 1005.3 |
| 20260509215241 | 72 | 178 | 0.9 | 3.5 | 0.00 | 0.00 | 0.00 | 58 | 1005.3 |
| 20260509214744 | 72 | 177 | 0.0 | 0.9 | 0.00 | 0.00 | 0.00 | 57 | 1005.3 |
| 20260509214245 | 72 | 178 | 0.0 | 0.9 | 0.00 | 0.00 | 0.00 | 58 | 1005.2 |
| 20260509213744 | 72 | 177 | 0.0 | 0.9 | 0.00 | 0.00 | 0.00 | 57 | 1005.2 |
| 20260509213245 | 72 | 177 | 0.0 | 3.5 | 0.00 | 0.00 | 0.00 | 57 | 1005.2 |
| 20260509212742 | 72 | 177 | 0.0 | 0.0 | 0.00 | 0.00 | 0.00 | 57 | 1005.2 |
| 20260509212242 | 73 | 177 | 0.0 | 0.9 | 0.00 | 0.00 | 0.00 | 57 | 1005.2 |
| 20260509211744 | 73 | 177 | 0.0 | 4.3 | 0.00 | 0.00 | 0.00 | 57 | 1005.2 |
| 20260509211244 | 73 | 178 | 0.0 | 6.1 | 0.00 | 0.00 | 0.00 | 56 | 1005.0 |
| 20260509210747 | 73 | 184 | 3.5 | 3.5 | 0.00 | 0.00 | 0.00 | 58 | 1005.0 |
| 20260509210241 | 73 | 184 | 0.0 | 0.9 | 0.00 | 0.00 | 0.00 | 57 | 1005.0 |
| 20260509205747 | 73 | 184 | 0.0 | 0.9 | 0.00 | 0.00 | 0.00 | 56 | 1004.9 |
| 20260509205241 | 74 | 184 | 0.0 | 1.7 | 0.00 | 0.00 | 0.00 | 55 | 1004.9 |
| 20260509204742 | 74 | 184 | 1.7 | 1.7 | 0.00 | 0.00 | 0.00 | 54 | 1004.9 |
| 20260509204250 | 74 | 184 | 0.0 | 2.6 | 0.00 | 0.00 | 0.00 | 55 | 1004.8 |
| 20260509203750 | 74 | 184 | 2.6 | 3.5 | 0.00 | 0.00 | 0.00 | 54 | 1004.8 |
| 20260509203244 | 74 | 184 | 0.0 | 0.9 | 0.00 | 0.00 | 0.00 | 55 | 1004.8 |
| 20260509202742 | 73 | 184 | 0.0 | 2.6 | 0.00 | 0.00 | 0.00 | 56 | 1005.1 |
| 20260509202241 | 73 | 184 | 0.0 | 2.6 | 0.00 | 0.00 | 0.00 | 55 | 1005.1 |
| 20260509201741 | 73 | 184 | 0.0 | 3.5 | 0.00 | 0.00 | 0.00 | 53 | 1005.1 |
| 20260509201244 | 73 | 184 | 0.0 | 0.9 | 0.00 | 0.00 | 0.00 | 54 | 1005.3 |
| 20260509200741 | 73 | 184 | 0.9 | 1.7 | 0.00 | 0.00 | 0.00 | 54 | 1005.3 |
| 20260509200245 | 73 | 184 | 0.0 | 2.6 | 0.00 | 0.00 | 0.00 | 53 | 1005.3 |
| 20260509195742 | 73 | 184 | 0.0 | 1.7 | 0.00 | 0.00 | 0.00 | 54 | 1005.6 |
| 20260509195241 | 73 | 184 | 0.0 | 1.7 | 0.00 | 0.00 | 0.00 | 53 | 1005.6 |
| 20260509194745 | 72 | 184 | 0.0 | 2.6 | 0.00 | 0.00 | 0.00 | 54 | 1005.6 |
| 20260509194241 | 73 | 186 | 0.0 | 0.9 | 0.00 | 0.00 | 0.00 | 54 | 1005.8 |
| 20260509193747 | 73 | 186 | 0.0 | 3.5 | 0.00 | 0.00 | 0.00 | 50 | 1005.8 |
| 20260509193241 | 72 | 186 | 0.0 | 3.5 | 0.00 | 0.00 | 0.00 | 51 | 1005.8 |
| 20260509192741 | 72 | 186 | 0.0 | 1.7 | 0.00 | 0.00 | 0.00 | 54 | 1005.8 |
| 20260509192244 | 71 | 186 | 0.0 | 3.5 | 0.00 | 0.00 | 0.00 | 55 | 1005.8 |
| 20260509191744 | 71 | 186 | 0.0 | 3.5 | 0.00 | 0.00 | 0.00 | 55 | 1005.8 |
| 20260509191241 | 70 | 186 | 0.9 | 4.3 | 0.00 | 0.00 | 0.00 | 56 | 1006.2 |
| 20260509190742 | 70 | 186 | 0.0 | 3.5 | 0.00 | 0.00 | 0.00 | 55 | 1006.2 |
| 20260509190244 | 70 | 187 | 0.0 | 4.3 | 0.00 | 0.00 | 0.00 | 55 | 1006.2 |
| 20260509185747 | 69 | 192 | 0.0 | 5.2 | 0.00 | 0.00 | 0.00 | 55 | 1006.2 |
| 20260509185244 | 69 | 276 | 0.0 | 3.5 | 0.00 | 0.00 | 0.00 | 56 | 1006.2 |
| 20260509184742 | 68 | 276 | 0.9 | 0.9 | 0.00 | 0.00 | 0.00 | 58 | 1006.2 |
| 20260509184241 | 68 | 276 | 0.0 | 0.9 | 0.00 | 0.00 | 0.00 | 56 | 1006.3 |
| 20260509183742 | 68 | 276 | 0.0 | 0.0 | 0.00 | 0.00 | 0.00 | 59 | 1006.3 |
| 20260509183241 | 68 | 276 | 0.0 | 1.7 | 0.00 | 0.00 | 0.00 | 58 | 1006.3 |
| 20260509182747 | 68 | 276 | 0.0 | 0.0 | 0.00 | 0.00 | 0.00 | 59 | 1006.5 |
| 20260509182244 | 67 | 276 | 0.0 | 0.9 | 0.00 | 0.00 | 0.00 | 59 | 1006.5 |
| 20260509181750 | 67 | 276 | 0.0 | 0.0 | 0.00 | 0.00 | 0.00 | 60 | 1006.5 |
| 20260509181245 | 67 | 276 | 0.0 | 0.0 | 0.00 | 0.00 | 0.00 | 59 | 1006.9 |
| 20260509180744 | 67 | 276 | 0.0 | 2.6 | 0.00 | 0.00 | 0.00 | 59 | 1006.9 |
| 20260509180244 | 67 | 276 | 0.0 | 0.9 | 0.00 | 0.00 | 0.00 | 57 | 1006.9 |
| 20260509175741 | 68 | 276 | 0.0 | 1.7 | 0.00 | 0.00 | 0.00 | 58 | 1006.9 |
| 20260509175241 | 67 | 276 | 0.0 | 1.7 | 0.00 | 0.00 | 0.00 | 57 | 1006.9 |
| 20260509174744 | 67 | 276 | 1.7 | 3.5 | 0.00 | 0.00 | 0.00 | 57 | 1006.9 |
| 20260509174242 | 67 | 276 | 3.5 | 3.5 | 0.00 | 0.00 | 0.00 | 58 | 1006.9 |
| 20260509173744 | 67 | 276 | 2.6 | 3.5 | 0.00 | 0.00 | 0.00 | 57 | 1006.9 |
| 20260509173241 | 67 | 276 | 2.6 | 3.5 | 0.00 | 0.00 | 0.00 | 57 | 1006.9 |
| 20260509172750 | 67 | 276 | 0.0 | 4.3 | 0.00 | 0.00 | 0.00 | 57 | 1007.0 |
| 20260509172247 | 67 | 276 | 0.0 | 5.2 | 0.00 | 0.00 | 0.00 | 56 | 1007.0 |
| 20260509171747 | 67 | 252 | 0.0 | 2.6 | 0.00 | 0.00 | 0.00 | 57 | 1007.0 |
| 20260509171241 | 66 | 252 | 0.0 | 2.6 | 0.00 | 0.00 | 0.00 | 57 | 1007.2 |
| 20260509170744 | 67 | 252 | 0.0 | 3.5 | 0.00 | 0.00 | 0.00 | 57 | 1007.2 |
| 20260509170242 | 67 | 243 | 0.0 | 3.5 | 0.00 | 0.00 | 0.00 | 55 | 1007.2 |
| 20260509165748 | 67 | 243 | 0.9 | 3.5 | 0.00 | 0.00 | 0.00 | 55 | 1007.0 |
| 20260509165244 | 68 | 239 | 0.0 | 1.7 | 0.00 | 0.00 | 0.00 | 54 | 1007.0 |
| 20260509164747 | 68 | 239 | 0.0 | 0.0 | 0.00 | 0.00 | 0.00 | 54 | 1007.0 |
| 20260509164242 | 68 | 239 | 0.0 | 2.6 | 0.00 | 0.00 | 0.00 | 53 | 1007.2 |
| 20260509163747 | 68 | 241 | 0.0 | 1.7 | 0.00 | 0.00 | 0.00 | 51 | 1007.2 |
| 20260509163245 | 69 | 240 | 0.0 | 3.5 | 0.00 | 0.00 | 0.00 | 51 | 1007.2 |
| 20260509162747 | 69 | 240 | 0.0 | 4.3 | 0.00 | 0.00 | 0.00 | 50 | 1007.2 |
| 20260509162247 | 69 | 219 | 0.0 | 5.2 | 0.00 | 0.00 | 0.00 | 50 | 1007.2 |
| 20260509161747 | 69 | 210 | 4.3 | 7.8 | 0.00 | 0.00 | 0.00 | 50 | 1007.2 |
| 20260509161244 | 69 | 196 | 2.6 | 4.3 | 0.00 | 0.00 | 0.00 | 51 | 1007.3 |
| 20260509160744 | 69 | 157 | 3.5 | 5.2 | 0.00 | 0.00 | 0.00 | 50 | 1007.3 |
| 20260509160244 | 69 | 278 | 2.6 | 6.1 | 0.00 | 0.00 | 0.00 | 52 | 1007.3 |
| 20260509155742 | 69 | 162 | 3.5 | 8.7 | 0.00 | 0.00 | 0.00 | 50 | 1007.3 |
| 20260509155244 | 68 | 222 | 4.3 | 5.2 | 0.00 | 0.00 | 0.00 | 52 | 1007.3 |
| 20260509154741 | 68 | 210 | 5.2 | 9.6 | 0.00 | 0.00 | 0.00 | 51 | 1007.3 |
| 20260509154241 | 67 | 238 | 2.6 | 6.1 | 0.00 | 0.00 | 0.00 | 54 | 1007.4 |
| 20260509153741 | 66 | 232 | 1.7 | 5.2 | 0.00 | 0.00 | 0.00 | 54 | 1007.4 |
| 20260509153250 | 66 | 234 | 1.7 | 7.0 | 0.00 | 0.00 | 0.00 | 56 | 1007.4 |
| 20260509152744 | 65 | 207 | 0.0 | 3.5 | 0.00 | 0.00 | 0.00 | 56 | 1007.7 |
| 20260509152247 | 64 | 209 | 0.0 | 4.3 | 0.00 | 0.00 | 0.00 | 58 | 1007.7 |
| 20260509151742 | 64 | 208 | 0.0 | 4.3 | 0.00 | 0.00 | 0.00 | 58 | 1007.7 |
| 20260509151241 | 63 | 207 | 2.6 | 4.3 | 0.00 | 0.00 | 0.00 | 57 | 1007.9 |
| 20260509150741 | 63 | 202 | 0.0 | 5.2 | 0.00 | 0.00 | 0.00 | 56 | 1007.9 |
| 20260509150241 | 63 | 205 | 0.9 | 4.3 | 0.00 | 0.00 | 0.00 | 57 | 1007.9 |
| 20260509145744 | 63 | 204 | 0.0 | 2.6 | 0.00 | 0.00 | 0.00 | 58 | 1008.2 |
| 20260509145241 | 63 | 205 | 0.0 | 6.1 | 0.00 | 0.00 | 0.00 | 57 | 1008.2 |
| 20260509144745 | 62 | 209 | 2.6 | 5.2 | 0.00 | 0.00 | 0.00 | 57 | 1008.2 |
| 20260509143741 | 62 | 218 | 0.0 | 5.2 | 0.00 | 0.00 | 0.00 | 58 | 1008.3 |
| 20260509143251 | 62 | 220 | 1.7 | 3.5 | 0.00 | 0.00 | 0.00 | 58 | 1008.3 |
| 20260509142741 | 62 | 221 | 0.0 | 4.3 | 0.00 | 0.00 | 0.00 | 58 | 1007.9 |
| 20260509142248 | 62 | 222 | 0.9 | 4.3 | 0.00 | 0.00 | 0.00 | 58 | 1007.9 |
| 20260509141741 | 62 | 224 | 0.0 | 4.3 | 0.00 | 0.00 | 0.00 | 57 | 1007.9 |
| 20260509141244 | 62 | 224 | 0.0 | 5.2 | 0.00 | 0.00 | 0.00 | 57 | 1007.9 |
| 20260509140741 | 62 | 225 | 1.7 | 5.2 | 0.00 | 0.00 | 0.00 | 58 | 1007.9 |
| 20260509140241 | 62 | 242 | 0.9 | 3.5 | 0.00 | 0.00 | 0.00 | 58 | 1007.9 |
| 20260509135744 | 62 | 244 | 1.7 | 4.3 | 0.00 | 0.00 | 0.00 | 58 | 1008.0 |
| 20260509135241 | 62 | 263 | 0.0 | 7.0 | 0.00 | 0.00 | 0.00 | 58 | 1008.0 |
| 20260509134744 | 62 | 248 | 0.0 | 2.6 | 0.00 | 0.00 | 0.00 | 59 | 1008.0 |
| 20260509134244 | 62 | 250 | 0.0 | 5.2 | 0.00 | 0.00 | 0.00 | 58 | 1008.0 |
| 20260509133744 | 62 | 161 | 3.5 | 6.1 | 0.00 | 0.00 | 0.00 | 58 | 1008.0 |
| 20260509133244 | 62 | 165 | 0.9 | 4.3 | 0.00 | 0.00 | 0.00 | 58 | 1008.0 |
| 20260509132744 | 61 | 165 | 1.7 | 5.2 | 0.00 | 0.00 | 0.00 | 58 | 1007.9 |
| 20260509132244 | 61 | 169 | 4.3 | 7.8 | 0.00 | 0.00 | 0.00 | 58 | 1007.9 |
| 20260509131741 | 61 | 187 | 0.0 | 6.1 | 0.00 | 0.00 | 0.00 | 58 | 1007.9 |
| 20260509131241 | 61 | 182 | 0.0 | 7.0 | 0.00 | 0.00 | 0.00 | 58 | 1007.9 |
| 20260509130747 | 61 | 258 | 0.9 | 4.3 | 0.00 | 0.00 | 0.00 | 58 | 1007.9 |
| 20260509130241 | 61 | 269 | 1.7 | 10.4 | 0.00 | 0.00 | 0.00 | 58 | 1007.9 |
| 20260509125741 | 60 | 216 | 1.7 | 7.0 | 0.00 | 0.00 | 0.00 | 58 | 1007.8 |
| 20260509125242 | 60 | 192 | 0.0 | 7.0 | 0.00 | 0.00 | 0.00 | 58 | 1007.8 |
| 20260509124741 | 60 | 170 | 1.7 | 7.0 | 0.00 | 0.00 | 0.00 | 58 | 1007.8 |
| 20260509124244 | 60 | 165 | 0.0 | 9.6 | 0.00 | 0.00 | 0.00 | 58 | 1007.8 |
| 20260509123742 | 60 | 161 | 5.2 | 9.6 | 0.00 | 0.00 | 0.00 | 57 | 1007.8 |
| 20260509123247 | 59 | 155 | 0.0 | 5.2 | 0.00 | 0.00 | 0.00 | 57 | 1007.8 |
| 20260509122745 | 59 | 155 | 1.7 | 6.1 | 0.00 | 0.00 | 0.00 | 57 | 1007.8 |
| 20260509122241 | 59 | 154 | 0.0 | 5.2 | 0.00 | 0.00 | 0.00 | 57 | 1007.8 |
| 20260509121741 | 59 | 158 | 0.0 | 4.3 | 0.00 | 0.00 | 0.00 | 56 | 1007.8 |
| 20260509121241 | 59 | 158 | 0.0 | 4.3 | 0.00 | 0.00 | 0.00 | 56 | 1007.8 |
| 20260509120741 | 59 | 158 | 0.0 | 6.1 | 0.00 | 0.00 | 0.00 | 56 | 1007.8 |
| 20260509120244 | 59 | 159 | 0.0 | 7.0 | 0.00 | 0.00 | 0.00 | 56 | 1007.8 |